Ceduna, Australia

8:18 AM ACDT on December 09, 2019 (GMT +1030)
Ceduna

Weather History for YPCD - July, 2019

Change the Weather History Date:

Tuesday, July 16, 2019

  Actual Average (WUND) Record (WUND)
Temperature  
Mean Temperature 50 °F -  
Max Temperature 56 °F 64 °F - (-1)
Min Temperature 43 °F 43 °F - (-1)
Degree Days  
Heating Degree Days 16    
Moisture  
Dew Point 48 °F    
Average Humidity 81    
Maximum Humidity 92    
Minimum Humidity 69    
Precipitation  
Precipitation 0.01 in 0.05 in - ()
Sea Level Pressure  
Sea Level Pressure 30.44 in    
Wind  
Wind Speed 4 mph ()    
Max Wind Speed 12 mph    
Max Gust Speed -    
Visibility 1.0 miles    
Events      
Averages and records for this station are not official NWS values.
T = Trace of Precipitation, MM = Missing Value Source: Averaged Metar Reports

Daily Weather History Graph

Daily Weather History Graph

Search for Another Location

Airport or City:

Astronomy

Jul. 16, 2019 Rise Set
Actual Time 7:34 AM ACST 5:48 PM ACST
Civil Twilight 7:07 AM ACST 6:15 PM ACST
Nautical Twilight 6:37 AM ACST 6:45 PM ACST
Astronomical Twilight 6:07 AM ACST 7:14 PM ACST
Moon 5:14 PM ACST (7/16) 6:51 AM ACST (7/16)
Length of Visible Light 11h 07m
Length of Day
10h 14m
Waxing Gibbous, 99% of the Moon is Illuminated
Jul 16
Waxing Gibbous
Jul 17
Full
Jul 25
Last Quarter
Aug 1
New
Aug 8
First Quarter

Hourly Weather History & Observations

Time (ACST) Temp. Dew Point Humidity Pressure Visibility Wind Dir Wind Speed Gust Speed Precip Events Conditions
12:00 AM 53 °F 46 °F 71% 30.49 in - South 5.8 mph - -   Overcast
12:30 AM 53 °F 48 °F 78% 30.48 in - SSW 9.2 mph - -  
1:30 AM 51 °F 48 °F 85% 30.48 in - SE 3.5 mph - -  
2:30 AM 51 °F 48 °F 87% 30.45 in - SSW 1.2 mph - -  
3:00 AM 52 °F 48 °F 80% 30.45 in - South 3.5 mph - -   Overcast
3:30 AM 52 °F 47 °F 79% 30.45 in - SSE 4.6 mph - -  
4:30 AM 52 °F 47 °F 79% 30.44 in - Calm Calm - -  
5:30 AM 52 °F 48 °F 80% 30.44 in - East 3.5 mph - -  
6:00 AM 52 °F 47 °F 79% 30.44 in - Calm Calm - -   Overcast
6:30 AM 52 °F 48 °F 82% 30.44 in - East 3.5 mph - -  
7:30 AM 52 °F 48 °F 82% 30.46 in - ESE 3.5 mph - -  
8:30 AM 52 °F 50 °F 90% 30.48 in - West 1.2 mph - -  
9:00 AM 53 °F 51 °F 89% 30.48 in 1 mi Calm Calm - -   Overcast
9:30 AM 53 °F 51 °F 91% 30.48 in - North 5.8 mph - -  
10:30 AM 53 °F 50 °F 87% 30.49 in - West 6.9 mph - -  
11:30 AM 55 °F 50 °F 77% 30.47 in - WNW 5.8 mph - -  
12:00 PM 56 °F 51 °F 78% 30.47 in - West 5.8 mph - -   Unknown Precipitation
12:30 PM 55 °F 51 °F 83% 30.45 in - WSW 8.1 mph - -  
1:30 PM 56 °F 51 °F 76% 30.43 in - SW 8.1 mph - -  
3:00 PM 56 °F 51 °F 77% 30.41 in - South 11.5 mph - -   Overcast
3:30 PM 55 °F 52 °F 88% 30.41 in - WSW 9.2 mph - -  
4:30 PM 56 °F 49 °F 69% 30.40 in - SSW 6.9 mph - -  
5:30 PM 55 °F 48 °F 69% 30.40 in - WSW 8.1 mph - -  
6:00 PM 53 °F 47 °F 75% 30.40 in - WSW 6.9 mph - -  
6:30 PM 51 °F 46 °F 75% 30.41 in - WSW 6.9 mph - -  
7:30 PM 52 °F 47 °F 76% 30.41 in - WSW 6.9 mph - -  
8:30 PM 48 °F 45 °F 85% 30.41 in - WSW 5.8 mph - -  
9:00 PM 47 °F 43 °F 82% 30.41 in - SW 5.8 mph - -  
9:30 PM 43 °F 39 °F 82% 30.42 in - South 5.8 mph - -  
10:30 PM 46 °F 44 °F 89% 30.41 in - South 4.6 mph - -  
11:30 PM 43 °F 42 °F 92% 30.40 in - East 1.2 mph - -